Wind_Speed
5 7 8 7 4 4 12 13 15 15 11 14 7 8 15 15 10 11 20 14 15 18 11 10 10 10 9 10 9 10 11 11 10 12 12 12 13 13 15 14 15 14 14 14 14 15 15 15 14
6 6 8 5 2 11 8 13 12 13 14 11 10 8 12 15 15 19 18 15 14 16 16 12 10 9 9 9 9 10 10 10 11 11 12 13 13 13 13 14 15 14 14 14 13 13 13 12 12
5 8 5 3 2 13 9 12 14 13 11 9 6 11 8 15 15 17 20 16 15 16 16 12 11 10 9 9 9 10 11 11 11 11 12 12 12 12 12 13 12 13 13 12 11 11 10 10 9
6 6 5 2 14 11 15 11 12 11 6 2 11 13 16 16 10 21 19 17 15 21 15 11 11 10 9 9 9 9 10 11 11 11 10 11 10 10 10 10 11 11 11 10 8 8 8 8 8
11 7 2 6 21 13 13 13 10 8 9 7 7 16 13 8 20 19 17 16 15 12 12 11 11 11 9 9 10 11 10 11 11 10 10 8 8 9 9 9 10 10 10 9 8 7 7 6 6
7 4 2 9 15 15 13 10 7 10 8 10 11 16 12 15 18 18 16 14 13 18 16 12 9 10 9 8 10 9 9 9 10 8 8 7 7 8 8 9 9 9 8 8 7 6 5 4 4
12 3 3 12 12 13 11 4 8 10 8 8 16 12 12 17 17 17 14 11 12 11 14 11 10 8 9 8 9 8 8 8 7 7 7 6 7 7 8 9 9 9 8 6 4 3 2 2 3
8 6 14 10 5 14 9 10 4 8 11 12 12 9 17 20 18 17 14 12 11 11 12 11 10 11 12 9 10 9 8 8 7 7 7 7 8 8 8 8 8 7 5 4 2 0 1 3 4
4 3 5 12 5 11 8 10 6 6 11 9 3 15 21 22 19 17 15 12 10 10 11 12 11 9 10 10 9 10 10 9 9 8 8 6 8 7 6 5 4 5 4 3 1 1 3 2 1
2 5 7 11 13 13 6 10 11 10 12 11 9 20 24 22 19 17 14 14 13 12 12 11 12 12 13 14 12 11 11 9 8 7 2 4 6 5 8 6 3 3 1 1 1 4 1 7 7
12 1 8 11 10 9 10 10 7 11 10 12 15 19 20 19 17 15 13 12 12 12 12 11 13 13 14 14 14 13 10 9 9 5 3 7 2 4 7 7 6 6 2 8 2 4 7 2 3
3 9 12 10 11 11 9 9 8 4 10 14 15 18 19 16 15 15 12 11 12 12 12 13 14 13 13 13 13 11 12 8 6 8 3 3 7 3 1 4 4 2 4 5 1 4 5 4 4
9 11 13 12 9 14 9 8 7 5 6 9 17 17 17 15 15 14 12 11 12 12 12 14 13 10 12 11 11 10 12 10 9 6 4 3 4 3 3 4 3 3 2 3 1 3 2 1 1
8 13 13 9 10 8 11 10 6 7 12 15 16 16 15 14 15 14 12 12 12 13 14 14 13 12 12 7 10 9 10 6 4 4 3 2 2 1 3 3 1 1 3 5 4 4 4 5 4
10 14 11 10 7 7 9 10 8 11 13 15 15 14 14 12 14 14 13 13 13 14 15 15 14 13 11 8 10 10 10 10 6 5 2 0 3 2 2 2 5 4 4 3 3 4 5 5 7
8 10 5 12 8 5 8 10 14 12 12 13 14 13 12 13 15 14 14 13 14 15 15 15 15 14 11 10 9 10 10 4 8 6 5 4 3 3 3 6 7 4 7 8 7 9 8 12 10
6 9 20 10 9 9 9 7 13 12 11 13 13 14 13 13 13 15 16 15 17 15 16 16 14 13 12 10 9 8 7 10 9 10 8 7 5 5 6 8 9 6 11 13 10 13 12 13 14
1 14 4 8 12 5 8 5 10 13 13 11 14 14 14 14 15 18 17 17 18 17 17 15 15 11 11 10 8 9 11 13 14 12 11 6 6 6 7 10 8 8 13 13 11 10 12 13 15
27 8 5 5 8 8 5 13 11 12 12 13 13 15 15 15 18 21 19 18 18 18 17 18 17 15 13 13 12 13 13 14 16 15 12 5 8 10 8 10 12 10 10 7 10 12 15 17 14
9 4 3 6 2 6 4 12 9 15 14 13 14 16 16 17 17 20 21 19 18 21 20 19 20 19 17 14 13 13 12 12 15 12 5 4 8 9 10 10 11 14 11 14 11 11 11 14 13
7 7 2 6 8 11 9 13 9 12 11 12 13 13 16 17 18 18 21 21 21 20 21 22 24 23 22 20 16 13 13 12 9 11 12 11 8 7 7 5 5 7 9 11 10 11 9 12 16
10 22 7 14 10 2 16 3 8 9 13 14 14 14 14 17 17 17 20 23 23 23 22 23 23 22 22 22 19 19 16 18 19 17 16 8 4 5 4 2 1 2 6 5 8 7 8 8 13
9 4 4 5 13 11 15 7 5 12 11 13 13 16 15 15 17 18 21 26 24 23 23 24 23 22 22 22 22 19 21 19 14 11 12 7 6 6 3 3 3 5 5 8 8 10 10 10 10
6 9 11 12 15 12 14 16 6 8 8 8 9 11 14 15 16 16 20 20 22 23 22 22 23 22 20 21 20 19 19 13 16 16 9 12 17 9 8 7 7 9 9 10 9 9 10 11 10
9 16 11 4 7 7 7 15 8 12 9 7 5 2 6 12 15 15 14 18 21 20 19 18 18 12 6 7 10 9 7 6 7 13 17 22 18 9 6 7 7 9 11 13 12 12 12 12 9
3 18 8 11 12 7 14 3 5 11 12 12 8 2 4 10 12 16 15 17 17 16 25 24 26 28 24 21 20 19 15 10 8 10 17 26 18 14 7 7 7 9 10 9 12 11 13 11 7
13 16 16 16 19 17 15 6 12 17 15 12 12 7 7 7 13 13 5 7 13 25 20 25 31 28 27 25 26 20 16 11 12 14 17 16 16 6 4 2 8 9 9 11 10 6 5 4 7
12 17 13 11 15 15 17 12 8 6 13 15 11 9 7 7 11 13 14 22 25 25 23 22 24 26 22 18 10 10 2 7 5 9 7 12 9 6 6 8 7 8 5 4 1 2 5 4 4
10 12 12 16 12 11 12 2 9 5 10 16 12 12 9 10 8 8 13 19 21 22 22 21 18 14 5 5 3 10 12 12 6 4 6 7 4 5 3 4 5 4 3 6 5 3 6 5 5
9 15 16 12 13 14 12 12 10 12 11 14 13 11 9 9 9 8 12 16 19 20 18 13 10 1 2 3 4 10 11 10 8 6 5 4 6 6 6 3 3 3 4 5 5 6 4 6 6
Wind_Direction
235 256 280 258 283 198 105 92 94 114 92 73 69 47 62 26 11 91 136 129 135 128 123 120 126 123 117 112 114 113 110 109 108 107 107 104 104 103 99 100 100 99 101 102 104 107 107 105 105
269 276 243 275 257 102 94 110 86 84 99 104 111 99 64 66 93 119 122 133 130 121 134 125 122 120 117 114 112 107 105 106 113 110 106 104 102 101 103 99 98 98 100 106 109 110 109 107 103
268 278 277 331 273 114 116 107 92 104 124 113 91 50 50 110 113 121 127 134 130 117 116 121 122 122 119 118 111 104 108 110 110 113 109 105 112 105 105 105 106 107 107 109 115 118 113 103 99
271 210 233 203 113 89 104 110 125 124 124 56 102 84 95 102 101 121 135 133 132 107 112 119 120 119 117 116 110 110 111 111 113 111 114 113 110 110 110 113 115 116 118 120 123 116 104 98 90
246 254 202 124 101 108 96 111 132 146 138 122 86 119 110 104 110 131 133 136 134 121 126 122 123 123 120 124 117 121 119 118 121 114 119 115 114 117 116 118 119 123 129 127 122 113 101 88 82
247 296 302 113 109 105 99 116 118 95 114 88 109 123 110 123 133 136 139 148 139 134 128 121 125 127 126 123 132 121 118 118 116 124 118 115 118 116 118 121 126 133 138 135 128 114 98 75 58
268 59 184 109 112 108 99 121 108 112 124 125 133 126 127 148 140 138 142 143 126 136 121 132 132 127 128 128 135 126 126 125 128 122 117 121 121 123 128 131 133 138 139 136 126 112 82 35 9
263 227 116 90 123 109 108 77 68 111 81 122 155 140 156 142 148 143 145 141 136 141 127 127 146 144 128 122 131 130 131 132 129 126 122 117 112 112 107 122 136 143 147 147 157 142 352 358 17
236 206 94 128 12 120 140 112 84 94 128 146 99 134 141 146 152 150 150 147 144 142 139 146 136 147 125 129 133 125 128 128 116 104 116 137 143 125 114 145 154 140 149 168 181 338 349 311 90
18 33 119 104 194 118 130 102 119 138 144 144 149 119 138 154 162 156 162 155 155 156 155 155 137 140 147 130 137 134 139 133 136 134 207 231 100 106 111 144 130 107 93 187 1 1 360 346 219
7 27 111 74 87 125 119 112 147 131 156 157 145 146 153 160 170 162 171 154 154 154 147 158 138 152 143 139 142 145 139 143 133 130 345 55 165 156 191 156 169 206 339 234 300 277 265 49 352
166 92 95 116 109 112 102 126 150 355 56 148 147 153 161 169 175 167 158 151 149 150 155 148 145 150 136 143 154 140 136 132 166 114 145 140 208 150 336 48 81 192 109 22 44 333 7 317 333
194 108 107 94 124 95 130 111 93 90 98 131 142 159 169 178 173 164 153 154 144 152 152 139 147 140 142 173 126 172 132 168 132 136 115 85 58 56 229 103 350 18 5 90 39 19 3 354 272
124 95 102 125 112 134 125 132 154 122 132 134 153 168 175 182 176 160 162 159 153 155 158 146 154 151 156 137 151 162 163 137 176 160 134 80 48 132 89 195 220 25 340 19 4 360 346 327 303
127 133 139 141 158 141 165 165 118 150 150 153 168 177 179 183 180 170 172 162 169 163 163 153 161 164 160 150 170 187 167 184 170 190 186 334 344 26 319 286 279 327 0 293 270 307 270 280 285
206 157 153 142 178 139 140 282 130 158 165 166 177 181 186 184 184 181 174 173 169 172 166 164 174 168 173 175 185 198 199 213 208 213 223 214 245 288 286 266 280 21 299 292 286 291 297 310 319
164 310 152 144 214 135 253 204 132 165 193 168 185 184 189 186 194 184 181 183 170 175 173 173 181 176 174 177 197 217 227 236 233 228 231 193 251 260 263 275 291 358 297 293 292 299 319 318 308
299 198 186 106 168 212 204 200 159 173 194 189 184 190 190 194 193 180 193 189 174 177 179 188 186 191 183 190 209 238 230 227 238 239 244 180 244 240 272 279 284 297 287 296 344 351 312 297 286
217 129 224 256 95 299 299 214 147 182 209 195 186 187 196 200 183 178 196 185 182 180 186 188 195 190 192 198 216 217 230 228 236 239 243 257 263 263 251 277 275 262 268 320 327 309 306 302 312
262 228 336 208 54 270 240 261 214 194 195 213 190 187 200 196 191 186 187 193 198 186 188 196 201 200 202 209 221 234 235 231 221 234 170 199 278 270 270 280 287 317 319 315 305 295 305 308 316
222 160 202 296 213 233 250 236 227 215 186 204 206 197 193 201 199 186 185 195 200 199 191 199 203 204 206 216 214 223 242 266 262 244 252 242 218 250 257 271 284 301 295 297 299 296 298 296 304
106 279 177 214 242 132 261 170 180 188 184 197 205 197 206 197 203 192 192 196 207 205 205 204 206 209 211 214 227 217 225 225 227 239 239 171 172 231 235 242 278 321 317 346 340 339 332 276 269
163 321 301 257 256 255 183 246 319 167 165 180 204 198 206 202 205 208 197 197 209 214 207 206 200 211 219 214 226 232 227 253 271 273 223 152 152 158 156 106 85 69 60 38 21 5 359 335 325
335 254 229 244 253 266 52 311 124 320 117 108 164 194 205 210 202 208 211 202 202 214 217 212 191 196 213 220 230 249 278 287 301 300 272 193 181 163 130 109 89 69 60 51 37 18 21 6 353
246 270 272 278 329 334 51 226 143 196 104 94 95 81 210 218 214 204 214 203 204 208 210 215 176 155 144 111 85 81 51 27 6 340 325 194 154 134 109 104 103 94 87 66 52 31 30 12 5
276 301 288 262 269 249 160 314 81 101 116 112 112 79 324 271 235 210 200 207 200 208 97 104 107 107 101 91 74 59 48 36 31 42 50 49 67 97 113 114 116 116 116 106 75 45 45 4 344
278 247 266 295 282 286 274 236 157 149 143 124 94 76 44 39 19 214 168 232 138 102 107 115 115 113 109 102 83 62 52 46 70 82 94 89 74 43 85 133 134 119 124 127 115 84 69 359 344
264 289 287 235 280 298 312 289 347 29 155 113 101 75 63 73 46 45 51 71 86 100 108 114 117 119 118 105 39 3 238 142 111 93 99 98 107 134 179 179 142 114 122 113 285 238 129 199 316
217 226 229 269 282 295 297 311 77 134 44 103 102 78 54 52 51 58 70 83 98 112 117 116 119 116 104 355 349 177 167 174 153 130 113 113 133 145 115 118 103 131 246 258 143 171 200 218 222
279 294 298 289 269 244 257 272 76 96 85 99 98 105 86 74 66 72 86 98 100 103 110 117 137 139 334 27 121 143 156 131 142 128 119 106 162 159 166 200 245 230 168 156 189 181 233 271 299
Height
769 767 765 762 781 770 780 778 756 767 768 758 761 768 773 776 784 807 803 807 809 813 819 822 822 824 824 825 826 827 827 829 830 830 831 831 831 832 832 832 833 834 835 835 836 837 838 838 838
768 767 764 754 791 782 789 765 778 767 764 764 765 766 772 791 784 794 803 809 810 815 819 823 824 825 826 827 828 829 830 831 832 833 832 833 834 834 834 835 836 837 837 838 839 840 840 840 840
769 766 760 779 774 782 796 770 770 768 765 766 772 769 775 793 789 794 805 809 811 816 820 824 826 828 829 830 831 832 832 833 834 834 834 835 835 835 837 837 838 839 840 841 842 842 842 841 841
767 759 752 786 777 761 763 766 764 770 766 764 766 789 785 790 792 801 806 809 812 817 821 825 827 828 830 831 832 833 834 834 835 835 835 836 836 836 838 838 839 840 841 842 843 843 844 843 842
764 749 766 783 773 764 757 756 761 770 768 769 772 789 796 794 798 804 807 810 812 819 822 826 828 829 831 832 833 835 835 836 837 837 837 837 838 838 838 839 841 842 842 843 844 845 845 843 843
760 750 785 787 773 761 757 754 756 762 765 772 776 789 794 798 802 806 808 809 810 816 821 827 829 830 831 833 835 836 837 837 838 838 838 839 840 840 840 840 841 842 843 844 845 845 845 844 844
764 787 780 769 773 771 764 754 759 765 771 774 774 791 795 798 803 806 809 809 811 815 819 825 830 831 832 834 835 836 837 839 839 840 840 840 841 841 841 841 842 843 844 845 845 846 845 844 843
756 760 779 767 781 780 765 761 760 760 773 767 768 791 799 796 803 807 810 811 812 815 818 824 828 829 831 835 835 837 838 839 840 841 841 841 842 842 843 843 843 844 845 845 845 845 845 844 843
746 777 786 775 783 771 761 767 763 763 774 773 772 776 786 798 803 806 809 812 816 817 820 823 827 829 832 835 837 838 839 840 842 843 842 842 843 843 843 844 845 845 845 845 845 845 844 843 842
766 783 778 755 766 762 761 765 768 773 776 780 778 779 790 798 801 803 807 809 814 817 820 822 823 829 831 833 837 839 840 841 843 844 843 841 843 844 844 846 845 846 846 845 845 844 843 841 841
779 769 757 754 751 753 761 765 762 770 779 777 782 785 792 797 799 801 803 806 810 815 819 820 824 827 829 834 836 837 838 841 844 846 844 843 843 844 842 843 844 844 843 843 844 843 842 844 844
762 745 750 753 752 757 766 764 767 766 767 767 776 785 791 795 796 799 801 806 810 815 819 821 825 828 830 833 833 835 837 841 842 844 846 845 843 844 842 840 843 842 842 844 845 842 844 844 844
757 749 748 751 753 759 762 769 773 776 768 769 777 786 790 792 795 798 802 807 810 816 820 823 829 830 833 834 835 836 838 839 842 844 846 845 843 845 842 845 842 844 844 844 844 844 844 844 842
743 747 756 758 761 762 769 773 768 775 770 777 782 786 788 790 794 798 803 807 811 816 821 826 831 834 836 836 839 838 838 841 843 844 846 847 845 846 844 844 842 843 845 844 844 846 845 843 841
744 762 760 762 763 767 759 779 772 771 772 780 783 785 786 789 793 797 802 807 811 816 820 826 831 835 838 839 842 840 841 840 843 845 847 848 847 847 845 843 844 843 845 846 844 845 842 841 838
758 754 784 765 763 763 772 817 770 769 773 781 783 784 786 789 792 797 802 807 811 814 819 825 827 832 837 840 842 841 840 839 842 844 846 847 848 848 848 845 843 843 846 843 842 842 840 839 837
767 822 794 777 757 763 768 792 765 766 769 776 781 782 786 788 792 796 801 805 810 814 819 823 826 830 834 838 840 842 842 843 841 842 843 844 847 848 848 845 843 844 846 842 841 840 840 838 838
791 805 762 778 759 761 767 770 763 763 765 768 773 777 781 783 788 794 799 803 807 813 818 823 826 828 833 836 839 839 839 841 841 839 839 841 844 846 847 845 844 846 844 841 841 842 843 842 837
781 777 774 762 754 765 768 774 768 758 758 763 766 772 776 779 781 789 796 799 804 811 817 821 825 828 831 834 834 835 834 836 837 837 838 840 844 844 845 845 843 842 842 841 843 844 842 839 835
765 765 780 762 754 763 763 766 752 748 753 751 757 764 770 773 775 783 790 796 801 806 812 818 821 825 828 830 831 830 830 830 831 833 835 839 843 844 844 844 843 843 842 844 844 844 844 842 839
753 768 781 776 757 757 763 765 753 738 739 746 747 753 760 766 770 776 785 792 796 801 806 812 816 820 824 826 828 830 831 830 831 832 834 836 841 843 844 843 844 844 844 844 844 843 842 841 840
802 761 754 762 764 800 760 811 755 741 747 746 749 750 755 759 764 768 778 785 791 794 800 806 812 817 821 824 825 827 828 828 829 830 830 832 836 840 842 842 842 842 843 842 841 841 840 840 840
779 742 747 750 754 747 756 763 781 734 744 743 742 744 748 751 757 762 767 776 784 788 794 799 806 813 817 820 822 824 826 828 828 827 830 827 832 837 839 840 841 840 841 842 843 844 843 842 840
745 749 748 744 745 765 790 778 764 787 747 736 733 737 742 746 750 756 762 769 777 782 787 791 798 807 814 818 821 825 826 829 827 828 829 825 828 834 834 836 839 840 843 842 843 845 845 845 845
751 754 772 788 810 790 787 777 753 747 730 734 742 741 739 741 746 753 759 763 771 777 782 787 793 804 812 817 822 823 827 828 829 829 831 824 826 837 839 836 836 836 840 842 843 846 846 849 850
763 768 780 821 779 766 787 835 747 725 729 737 745 751 754 748 742 747 753 760 767 773 784 789 795 805 816 821 825 827 829 830 829 828 831 825 809 824 839 838 839 837 838 841 842 844 844 851 855
756 764 738 761 746 757 737 733 707 709 725 733 746 757 758 755 753 746 753 758 763 778 790 795 799 809 815 818 823 830 831 836 835 830 823 823 832 837 835 839 840 839 840 840 841 844 845 852 857
750 739 767 754 793 795 761 749 762 734 720 735 751 764 767 766 771 773 775 777 783 790 798 805 809 812 815 817 817 815 823 833 832 829 830 824 828 830 834 836 832 838 848 843 845 842 846 853 854
749 757 754 751 757 777 779 756 721 730 724 737 759 773 783 785 787 787 788 790 794 800 806 810 814 817 819 817 815 822 825 832 832 830 829 827 834 837 839 840 841 836 842 849 846 847 850 852 851
730 743 743 764 770 750 757 754 718 729 739 746 776 784 791 794 795 795 797 799 803 807 811 815 817 819 820 819 819 825 830 828 831 830 830 831 837 838 838 839 841 842 843 845 847 847 851 851 850